Time,TemperatureF,DewpointF,PressureIn,WindDirection,WindDirectionDegrees,WindSpeedMPH,WindSpeedGustMPH,Humidity,HourlyPrecipIn,Conditions,Clouds,dailyrainin,SoftwareType,DateUTC
2013-08-02 00:05:00,67.6,66.8,0.00,WSW,248,0.0,0.0,97,0.00,,,0.00,Weather View 32 v70,2013-08-02 04:05:00,
2013-08-02 00:14:00,67.6,66.8,0.00,WSW,248,0.0,0.0,97,0.00,,,0.00,Weather View 32 v70,2013-08-02 04:14:00,
2013-08-02 00:29:00,67.5,66.6,0.00,WSW,248,0.0,0.0,97,0.00,,,0.00,Weather View 32 v70,2013-08-02 04:29:00,
2013-08-02 00:44:00,67.6,66.8,0.00,WSW,248,0.0,0.0,97,0.00,,,0.00,Weather View 32 v70,2013-08-02 04:44:00,
2013-08-02 00:59:00,67.6,66.8,0.00,WSW,248,0.0,0.0,97,0.00,,,0.00,Weather View 32 v70,2013-08-02 04:59:00,
2013-08-02 01:05:00,67.6,66.8,0.00,WSW,248,0.0,0.0,97,0.00,,,0.00,Weather View 32 v70,2013-08-02 05:05:00,
2013-08-02 01:14:00,67.5,66.6,0.00,WSW,248,0.0,0.0,97,0.00,,,0.00,Weather View 32 v70,2013-08-02 05:14:00,
2013-08-02 01:29:00,67.5,66.6,0.00,WSW,248,0.0,0.0,97,0.00,,,0.00,Weather View 32 v70,2013-08-02 05:29:00,
2013-08-02 01:44:00,67.5,66.9,0.00,WSW,248,0.0,0.0,98,0.00,,,0.00,Weather View 32 v70,2013-08-02 05:44:00,
2013-08-02 01:59:00,67.3,66.7,0.00,WSW,248,0.0,0.0,98,0.00,,,0.00,Weather View 32 v70,2013-08-02 05:59:00,
2013-08-02 02:06:00,67.3,66.7,0.00,WSW,248,0.0,0.0,98,0.00,,,0.00,Weather View 32 v70,2013-08-02 06:06:00,
2013-08-02 02:14:00,67.1,66.5,0.00,WSW,248,0.0,0.0,98,0.00,,,0.00,Weather View 32 v70,2013-08-02 06:14:00,
2013-08-02 02:29:00,66.9,66.3,0.00,WSW,248,0.0,0.0,98,0.00,,,0.00,Weather View 32 v70,2013-08-02 06:29:00,
2013-08-02 02:44:00,66.9,66.3,0.00,WSW,248,0.0,0.0,98,0.00,,,0.00,Weather View 32 v70,2013-08-02 06:44:00,
2013-08-02 02:59:00,66.9,66.3,0.00,WSW,248,0.0,0.0,98,0.00,,,0.00,Weather View 32 v70,2013-08-02 06:59:00,
2013-08-02 03:06:00,66.9,66.3,0.00,WSW,248,0.0,0.0,98,0.00,,,0.00,Weather View 32 v70,2013-08-02 07:06:00,
2013-08-02 03:14:00,66.7,66.2,0.00,WSW,248,2.0,2.0,98,0.00,,,0.00,Weather View 32 v70,2013-08-02 07:14:00,
2013-08-02 03:29:00,66.6,66.0,0.00,WSW,248,0.0,2.0,98,0.00,,,0.00,Weather View 32 v70,2013-08-02 07:29:00,
2013-08-02 03:44:00,66.2,65.6,0.00,WSW,248,0.0,2.0,98,0.00,,,0.00,Weather View 32 v70,2013-08-02 07:44:00,
2013-08-02 03:59:00,65.8,65.3,0.00,WSW,248,0.0,2.0,98,0.00,,,0.00,Weather View 32 v70,2013-08-02 07:59:00,
2013-08-02 04:07:00,65.8,65.3,0.00,WSW,248,0.0,2.0,98,0.00,,,0.00,Weather View 32 v70,2013-08-02 08:07:00,
2013-08-02 04:14:00,65.7,65.1,0.00,WSW,248,0.0,2.0,98,0.00,,,0.00,Weather View 32 v70,2013-08-02 08:14:00,
2013-08-02 04:29:00,65.3,64.7,0.00,WSW,248,0.0,0.0,98,0.00,,,0.00,Weather View 32 v70,2013-08-02 08:29:00,
2013-08-02 04:44:00,64.9,64.1,0.00,WSW,248,0.0,0.0,97,0.00,,,0.00,Weather View 32 v70,2013-08-02 08:44:00,
2013-08-02 04:59:00,64.6,63.7,0.00,WSW,248,0.0,0.0,97,0.00,,,0.00,Weather View 32 v70,2013-08-02 08:59:00,
2013-08-02 05:07:00,64.6,63.7,0.00,WSW,248,0.0,0.0,97,0.00,,,0.00,Weather View 32 v70,2013-08-02 09:07:00,
2013-08-02 05:14:00,64.2,63.3,0.00,WSW,248,0.0,0.0,97,0.00,,,0.00,Weather View 32 v70,2013-08-02 09:14:00,
2013-08-02 05:29:00,64.0,63.2,0.00,WSW,248,0.0,0.0,97,0.00,,,0.00,Weather View 32 v70,2013-08-02 09:29:00,
2013-08-02 05:44:00,63.9,62.7,0.00,WSW,248,0.0,0.0,96,0.00,,,0.00,Weather View 32 v70,2013-08-02 09:44:00,
2013-08-02 05:59:00,63.5,62.3,0.00,WSW,248,0.0,0.0,96,0.00,,,0.00,Weather View 32 v70,2013-08-02 09:59:00,
2013-08-02 06:08:00,63.5,62.3,0.00,WSW,248,0.0,0.0,96,0.00,,,0.00,Weather View 32 v70,2013-08-02 10:08:00,
2013-08-02 06:14:00,63.3,62.2,0.00,SW,235,0.0,0.0,96,0.00,,,0.00,Weather View 32 v70,2013-08-02 10:14:00,
2013-08-02 06:29:00,63.1,62.0,0.00,SW,235,0.0,0.0,96,0.00,,,0.00,Weather View 32 v70,2013-08-02 10:29:00,
2013-08-02 06:44:00,63.1,62.0,0.00,SW,235,0.0,0.0,96,0.00,,,0.00,Weather View 32 v70,2013-08-02 10:44:00,
2013-08-02 06:59:00,63.3,62.2,0.00,SW,235,0.0,0.0,96,0.00,,,0.00,Weather View 32 v70,2013-08-02 10:59:00,
2013-08-02 07:08:00,63.3,62.2,0.00,SW,235,0.0,0.0,96,0.00,,,0.00,Weather View 32 v70,2013-08-02 11:08:00,
2013-08-02 07:14:00,63.5,62.3,0.00,SW,235,0.0,0.0,96,0.00,,,0.00,Weather View 32 v70,2013-08-02 11:14:00,
2013-08-02 07:29:00,64.0,62.9,0.00,SW,235,0.0,0.0,96,0.00,,,0.00,Weather View 32 v70,2013-08-02 11:29:00,
2013-08-02 07:44:00,64.4,62.9,0.00,SW,235,0.0,0.0,95,0.00,,,0.00,Weather View 32 v70,2013-08-02 11:44:00,
2013-08-02 07:59:00,64.9,63.2,0.00,SW,235,0.0,0.0,94,0.00,,,0.00,Weather View 32 v70,2013-08-02 11:59:00,
2013-08-02 08:09:00,64.9,63.2,0.00,SW,235,0.0,0.0,94,0.00,,,0.00,Weather View 32 v70,2013-08-02 12:09:00,
2013-08-02 08:14:00,65.7,63.6,0.00,SW,235,0.0,0.0,93,0.00,,,0.00,Weather View 32 v70,2013-08-02 12:14:00,
2013-08-02 08:29:00,66.4,64.0,0.00,SW,235,0.0,0.0,92,0.00,,,0.00,Weather View 32 v70,2013-08-02 12:29:00,
2013-08-02 08:44:00,67.6,64.3,0.00,SW,235,0.0,0.0,89,0.00,,,0.00,Weather View 32 v70,2013-08-02 12:44:00,
2013-08-02 08:59:00,69.3,65.5,0.00,SW,235,0.0,0.0,88,0.00,,,0.00,Weather View 32 v70,2013-08-02 12:59:00,
2013-08-02 09:09:00,69.3,65.5,0.00,SW,235,0.0,0.0,88,0.00,,,0.00,Weather View 32 v70,2013-08-02 13:09:00,
2013-08-02 09:14:00,70.7,62.0,0.00,SW,235,0.0,0.0,74,0.00,,,0.00,Weather View 32 v70,2013-08-02 13:14:00,
2013-08-02 09:29:00,72.3,61.1,0.00,NNE,23,0.0,3.0,68,0.00,,,0.00,Weather View 32 v70,2013-08-02 13:29:00,
2013-08-02 09:44:00,73.2,59.8,0.00,WSW,256,0.0,4.0,63,0.00,,,0.00,Weather View 32 v70,2013-08-02 13:44:00,
2013-08-02 09:59:00,73.8,59.0,0.00,WSW,251,0.0,4.0,60,0.00,,,0.00,Weather View 32 v70,2013-08-02 13:59:00,
2013-08-02 10:00:00,73.8,59.0,0.00,WSW,251,0.0,4.0,60,0.00,,,0.00,Weather View 32 v70,2013-08-02 14:00:00,
2013-08-02 10:14:00,74.5,57.7,0.00,NNE,18,0.0,6.0,56,0.00,,,0.00,Weather View 32 v70,2013-08-02 14:14:00,
2013-08-02 10:29:00,75.7,57.3,0.00,North,350,0.0,6.0,53,0.00,,,0.00,Weather View 32 v70,2013-08-02 14:29:00,
2013-08-02 10:44:00,76.1,57.1,0.00,SW,221,3.0,6.0,52,0.00,,,0.00,Weather View 32 v70,2013-08-02 14:44:00,
2013-08-02 10:59:00,75.7,54.0,0.00,West,277,3.0,6.0,47,0.00,,,0.00,Weather View 32 v70,2013-08-02 14:59:00,
2013-08-02 11:00:00,75.7,54.0,0.00,West,277,3.0,6.0,47,0.00,,,0.00,Weather View 32 v70,2013-08-02 15:00:00,
2013-08-02 11:14:00,75.7,52.8,0.00,West,264,3.0,6.0,45,0.00,,,0.00,Weather View 32 v70,2013-08-02 15:14:00,
2013-08-02 11:29:00,75.6,50.8,0.00,WNW,297,5.0,6.0,42,0.00,,,0.00,Weather View 32 v70,2013-08-02 15:29:00,
2013-08-02 11:44:00,76.3,50.8,0.00,NW,312,3.0,6.0,41,0.00,,,0.00,Weather View 32 v70,2013-08-02 15:44:00,
2013-08-02 11:59:00,76.8,51.9,0.00,West,265,6.0,8.0,42,0.00,,,0.00,Weather View 32 v70,2013-08-02 15:59:00,
2013-08-02 12:00:00,76.8,51.9,0.00,West,265,6.0,8.0,42,0.00,,,0.00,Weather View 32 v70,2013-08-02 16:00:00,
2013-08-02 12:14:00,77.7,50.7,0.00,WNW,283,0.0,8.0,39,0.00,,,0.00,Weather View 32 v70,2013-08-02 16:14:00,
2013-08-02 12:29:00,77.9,48.7,0.00,SW,224,4.0,8.0,36,0.00,,,0.00,Weather View 32 v70,2013-08-02 16:29:00,
2013-08-02 12:44:00,78.1,51.0,0.00,NE,42,0.0,9.0,39,0.00,,,0.00,Weather View 32 v70,2013-08-02 16:44:00,
2013-08-02 12:59:00,77.9,50.2,0.00,WNW,301,3.0,10.0,38,0.00,,,0.00,Weather View 32 v70,2013-08-02 16:59:00,
2013-08-02 13:00:00,77.9,50.2,0.00,WNW,301,3.0,10.0,38,0.00,,,0.00,Weather View 32 v70,2013-08-02 17:00:00,
2013-08-02 13:14:00,78.8,48.8,0.00,WNW,288,3.0,10.0,35,0.00,,,0.00,Weather View 32 v70,2013-08-02 17:14:00,
2013-08-02 13:29:00,79.3,52.2,0.00,North,357,4.0,10.0,39,0.00,,,0.00,Weather View 32 v70,2013-08-02 17:29:00,
2013-08-02 13:44:00,80.1,49.1,0.00,WSW,258,3.0,10.0,34,0.00,,,0.00,Weather View 32 v70,2013-08-02 17:44:00,
2013-08-02 13:59:00,80.6,46.2,0.00,WNW,282,4.0,10.0,30,0.00,,,0.00,Weather View 32 v70,2013-08-02 17:59:00,
2013-08-02 14:00:00,80.6,46.2,0.00,WNW,282,4.0,10.0,30,0.00,,,0.00,Weather View 32 v70,2013-08-02 18:00:00,
2013-08-02 14:14:00,79.7,47.1,0.00,WNW,289,3.0,11.0,32,0.00,,,0.00,Weather View 32 v70,2013-08-02 18:14:00,
2013-08-02 14:29:00,80.2,48.4,0.00,SSW,200,4.0,11.0,33,0.00,,,0.00,Weather View 32 v70,2013-08-02 18:29:00,
2013-08-02 14:44:00,79.2,49.1,0.00,SW,234,5.0,11.0,35,0.00,,,0.00,Weather View 32 v70,2013-08-02 18:44:00,
2013-08-02 14:59:00,80.1,46.6,0.00,WSW,245,3.0,11.0,31,0.00,,,0.00,Weather View 32 v70,2013-08-02 18:59:00,
2013-08-02 15:00:00,80.1,46.6,0.00,WSW,245,3.0,11.0,31,0.00,,,0.00,Weather View 32 v70,2013-08-02 19:00:00,
2013-08-02 15:14:00,80.6,47.1,0.00,WSW,249,6.0,10.0,31,0.00,,,0.00,Weather View 32 v70,2013-08-02 19:14:00,
2013-08-02 15:29:00,81.0,47.4,0.00,West,275,5.0,11.0,31,0.00,,,0.00,Weather View 32 v70,2013-08-02 19:29:00,
2013-08-02 15:44:00,81.1,47.5,0.00,WNW,293,6.0,11.0,31,0.00,,,0.00,Weather View 32 v70,2013-08-02 19:44:00,
2013-08-02 15:59:00,81.3,46.8,0.00,West,265,5.0,11.0,30,0.00,,,0.00,Weather View 32 v70,2013-08-02 19:59:00,
2013-08-02 16:00:00,81.3,46.8,0.00,West,265,5.0,11.0,30,0.00,,,0.00,Weather View 32 v70,2013-08-02 20:00:00,
2013-08-02 16:14:00,81.0,46.5,0.00,WSW,237,10.0,11.0,30,0.00,,,0.00,Weather View 32 v70,2013-08-02 20:14:00,
2013-08-02 16:29:00,80.6,47.1,0.00,WNW,299,4.0,13.0,31,0.00,,,0.00,Weather View 32 v70,2013-08-02 20:29:00,
2013-08-02 16:44:00,79.9,47.3,0.00,West,274,0.0,13.0,32,0.00,,,0.00,Weather View 32 v70,2013-08-02 20:44:00,
2013-08-02 16:59:00,79.0,47.3,0.00,WSW,245,3.0,13.0,33,0.00,,,0.00,Weather View 32 v70,2013-08-02 20:59:00,
2013-08-02 17:15:00,79.0,48.9,0.00,WSW,258,3.0,13.0,35,0.00,,,0.00,Weather View 32 v70,2013-08-02 21:15:00,
2013-08-02 17:29:00,78.3,49.0,0.00,West,280,6.0,8.0,36,0.00,,,0.00,Weather View 32 v70,2013-08-02 21:29:00,
2013-08-02 17:44:00,78.4,50.6,0.00,West,266,2.0,6.0,38,0.00,,,0.00,Weather View 32 v70,2013-08-02 21:44:00,
2013-08-02 17:59:00,77.7,52.1,0.00,West,263,0.0,6.0,41,0.00,,,0.00,Weather View 32 v70,2013-08-02 21:59:00,
2013-08-02 18:14:00,77.2,51.6,0.00,SW,227,0.0,6.0,41,0.00,,,0.00,Weather View 32 v70,2013-08-02 22:14:00,
2013-08-02 18:29:00,77.0,52.1,0.00,SW,227,0.0,6.0,42,0.00,,,0.00,Weather View 32 v70,2013-08-02 22:29:00,
2013-08-02 18:44:00,78.4,52.0,0.00,West,273,0.0,4.0,40,0.00,,,0.00,Weather View 32 v70,2013-08-02 22:44:00,
2013-08-02 18:59:00,77.7,52.1,0.00,West,275,4.0,5.0,41,0.00,,,0.00,Weather View 32 v70,2013-08-02 22:59:00,
2013-08-02 19:14:00,77.0,51.4,0.00,West,270,3.0,5.0,41,0.00,,,0.00,Weather View 32 v70,2013-08-02 23:14:00,
2013-08-02 19:29:00,76.1,51.9,0.00,West,277,0.0,5.0,43,0.00,,,0.00,Weather View 32 v70,2013-08-02 23:29:00,
2013-08-02 19:44:00,75.7,52.2,0.00,West,278,0.0,5.0,44,0.00,,,0.00,Weather View 32 v70,2013-08-02 23:44:00,
2013-08-02 19:59:00,75.4,51.9,0.00,West,278,0.0,4.0,44,0.00,,,0.00,Weather View 32 v70,2013-08-02 23:59:00,
2013-08-02 20:14:00,75.0,52.2,0.00,West,278,0.0,4.0,45,0.00,,,0.00,Weather View 32 v70,2013-08-03 00:14:00,
2013-08-02 20:29:00,74.7,52.4,0.00,West,269,2.0,4.0,46,0.00,,,0.00,Weather View 32 v70,2013-08-03 00:29:00,
2013-08-02 20:44:00,74.3,52.7,0.00,West,279,0.0,4.0,47,0.00,,,0.00,Weather View 32 v70,2013-08-03 00:44:00,
2013-08-02 20:59:00,73.6,52.6,0.00,West,275,0.0,4.0,48,0.00,,,0.00,Weather View 32 v70,2013-08-03 00:59:00,
2013-08-02 21:15:00,73.4,53.0,0.00,West,275,0.0,4.0,49,0.00,,,0.00,Weather View 32 v70,2013-08-03 01:15:00,
2013-08-02 21:29:00,73.2,52.3,0.00,WSW,241,0.0,4.0,48,0.00,,,0.00,Weather View 32 v70,2013-08-03 01:29:00,
2013-08-02 21:45:00,73.0,52.1,0.00,West,271,2.0,4.0,48,0.00,,,0.00,Weather View 32 v70,2013-08-03 01:45:00,
2013-08-02 22:00:00,73.0,52.1,0.00,West,262,0.0,5.0,48,0.00,,,0.00,Weather View 32 v70,2013-08-03 02:00:00,
2013-08-02 22:15:00,72.5,52.7,0.00,WNW,289,0.0,5.0,50,0.00,,,0.00,Weather View 32 v70,2013-08-03 02:15:00,
2013-08-02 22:30:00,72.1,53.0,0.00,WNW,283,0.0,5.0,51,0.00,,,0.00,Weather View 32 v70,2013-08-03 02:30:00,
2013-08-02 22:45:00,71.8,53.7,0.00,WNW,283,0.0,5.0,53,0.00,,,0.00,Weather View 32 v70,2013-08-03 02:45:00,
2013-08-02 23:00:00,71.2,54.7,0.00,West,276,0.0,4.0,56,0.00,,,0.00,Weather View 32 v70,2013-08-03 03:00:00,
2013-08-02 23:14:00,70.9,52.8,0.00,WNW,282,3.0,4.0,53,0.00,,,0.00,Weather View 32 v70,2013-08-03 03:14:00,
2013-08-02 23:30:00,70.7,50.5,0.00,West,271,3.0,6.0,49,0.00,,,0.00,Weather View 32 v70,2013-08-03 03:30:00,
2013-08-02 23:45:00,70.5,50.9,0.00,West,269,3.0,6.0,50,0.00,,,0.00,Weather View 32 v70,2013-08-03 03:45:00,